Regional Weather Roundup
Issued by NWS Midland/Odessa, TX

Skip options and go directly to product.
Home | Oldest Version | Previous Version | Current Version | All | Text Only | Save Text | Print | Product List | Glossary Off

Skip product version selection by date and time.   

493
ASUS44 KMAF 291210
RWRMAF
MIDLAND AREA WEATHER ROUNDUP
NATIONAL WEATHER SERVICE MIDLAND TX
700 AM CDT WED JUN 29 2016

...IN SOUTHWEST TEXAS AND SOUTHEAST NEW MEXICO...

CITY           SKY/WX    TMP DP  RH WIND       PRES   REMARKS
ALPINE         PTCLDY    63  60  90 CALM      30.28R
ANDREWS        FAIR      64  64 100 CALM      30.17R
ARTESIA        CLEAR     66  57  72 NW3       30.19R
BIG SPRING     CLOUDY    65  62  90 CALM      30.16R
CARLSBAD       CLEAR     67  63  87 N6        30.16R
DRYDEN           N/A     69  66  90 N3        30.08S
FORT STOCKTON  CLEAR     67  62  84 CALM      30.14R
GUAD PASS      CLOUDY    65  59  81 NE14      30.29R
HOBBS          CLEAR     63  63 100 W5        30.20S
MARFA          CLOUDY   N/A N/A N/A NE6       30.25S
MIDLAND AIRPK  CLEAR     69  65  88 NW3       30.15R
MIDLAND INTL   CLEAR     66  64  93 N5        30.15R
ODESSA         CLEAR     67  63  87 N7        30.16R
PECOS          CLEAR     70  66  88 NE5       30.12R
PRESIDIO       FAIR      71  64  76 CALM      30.11
SEMINOLE       CLEAR     63  61  92 CALM      30.19R
SNYDER           N/A     67  63  86 CALM      30.15R
WINK           CLEAR     69  66  90 NE5       30.12R
$$
...OTHER STATIONS IN TEXAS...

CITY           SKY/WX    TMP DP  RH WIND       PRES   REMARKS
ABILENE        CLOUDY    69  68  96 CALM      30.11R
AMARILLO       CLEAR     64  58  80 SW9       30.20R
AUSTIN         PTCLDY    72  71  97 CALM      30.02R
BROWNSVILLE    CLEAR     76  75  97 CALM      29.94S
CORPUS CHRISTI CLOUDY    77  75  93 NE6       29.98R
DALLAS FTW     PTCLDY    78  69  73 CALM      30.03S
DEL RIO        PTCLDY    72  70  93 N3        30.03R
EL PASO        PTCLDY    69  62  78 N9        30.17R
HOUSTON INT    PTCLDY    74  72  93 NW6       29.97R
LUBBOCK        PTCLDY    64  59  83 NW7       30.17S
SAN ANGELO     CLEAR     70  68  93 CALM      30.10R
SAN ANTONIO    PTCLDY    72  69  90 NW5       30.02R
WACO           CLEAR     72  69  90 N6        30.03R
WICHITA FALLS  NOT AVBL
$$
...OTHER LOCATIONS IN NEW MEXICO...

CITY           SKY/WX    TMP DP  RH WIND       PRES   REMARKS
ALAMAGORDO     CLEAR     66  52  59 N6        30.22R
ALBUQUERQUE    PTCLDY    67  53  61 SE6       30.31R
CANNON AFB     CLEAR     65  61  88 W5        30.24R
CLOVIS         PTCLDY    61  57  88 S5        30.24R
HOLLOMAN AFB   CLEAR     64  52  64 N7        30.20R
ROSWELL        CLEAR     67  54  63 CALM      30.19S
RUIDOSO          N/A     59  48  67 CALM      30.41R
SANTA FE       CLOUDY    56  48  74 N6        30.37R
TRUTH OR CONSE PTCLDY    67  54  63 CALM      30.24S
TUCUMCARI      CLEAR     65  58  78 SW8       30.20R
$$

USA.gov is the U.S. government's official web portal to all federal, state and local government web resources and services.